Weather Roundup
Issued by NWS

Home | Current Version | Previous Version | Graphics & Text | Print | Product List | Glossary Off
Versions: 1 2 3 4 5 6 7 8 9 10 11 12 13 14 15 16 17 18 19 20 21 22 23 24 25 26 27 28 29 30 31 32 33 34 35 36 37 38 39 40 41 42 43 44 45 46 47 48 49 50

000
NZUS93 KARX 070659
HRRWXR

CURRENT HOURLY OBSERVATIONS ACROSS
MUCH OF THE UPPER MISSISSIPPI VALLEY
NATIONAL WEATHER SERVICE LA CROSSE WI
200 AM CDT TUE JUL 07 2015


...SOUTHEAST MINNESOTA...


CITY           SKY/WX    TMP DP  RH WIND       PRES   REMARKS
ROCHESTER      CLEAR     55  49  80 N10       30.04R
ROCHESTER/MAYO FAIR      56  50  80 NW7       30.04R
WINONA         PTCLDY    61  54  77 NW10      30.00R
AUSTIN         MOCLDY    57  50  77 N10       30.05R
ALBERT LEA     CLEAR     55  52  88 N7        30.06R
DODGE CENTER   CLEAR     55  48  76 N9        30.05R
PRESTON        PTCLDY    56  50  80 N10G16    30.03R
OWATONNA       CLEAR     54  48  82 NW5       30.07R
FARIBAULT      NOT AVBL
$$

...ELSEWHERE IN MINNESOTA...


CITY           SKY/WX    TMP DP  RH WIND       PRES   REMARKS
MINNEAPOLIS    CLEAR     58  48  69 N12       30.06R
INTNL FALLS    CLEAR     46  44  93 NW3       30.09F
DULUTH         CLOUDY    55  42  61 N12       30.05S
RED WING       PTCLDY    57  48  72 CALM      30.03R
REDWOOD FALLS  CLEAR     53  48  83 NW6       30.11S
MANKATO        CLEAR     54  46  76 NW8       30.09R
WORTHINGTON    CLEAR     52  46  82 NW3       30.14R
FAIRMONT       CLEAR     54  45  71 N7        30.10R
$$

...SOUTHWEST WISCONSIN...


CITY           SKY/WX    TMP DP  RH WIND       PRES   REMARKS
LA CROSSE      CLOUDY    60  58  92 N3        29.98R FOG
PRAIRIE DU CHI MOCLDY    62  55  76 NW5       29.96S HAZE
BOSCOBEL       MOCLDY    61  56  83 VRB3      29.96R HAZE
LONE ROCK      NOT AVBL
PLATTEVILLE    MOCLDY    61  57  87 N9        29.94R
FORT MC COY      N/A     53  52  95 CALM      29.98R FOG
VIROQUA        FAIR      57  57 100 N7        29.97R
WIS DELLS      CLOUDY    61  56  81 N7        29.93R HAZE
$$

...ELSEWHERE IN WISCONSIN...


CITY           SKY/WX    TMP DP  RH WIND       PRES   REMARKS
MILWAUKEE      LGT RAIN  61  59  93 N10       29.84R
MADISON        CLOUDY    62  58  86 MISG      29.90S FOG
GREEN BAY      CLOUDY    62  57  83 N9        29.90R HAZE
EAU CLAIRE     MOCLDY    58  50  75 N8        30.00R
BLACK RVR FLS  FOG       53  53 100 CALM      29.97R VSB 3/4
MEDFORD        PTCLDY    55  53  93 N10G17    29.97R FOG
WAUSAU         MOCLDY    57  53  86 NW6       29.95R FOG
WIS RAPIDS     CLEAR     58  53  84 N8        29.96R HAZE
MARSHFIELD     CLEAR     57  52  83 N9        29.96R HAZE
RICE LAKE      MOCLDY    56  47  71 N7        30.04S
$$

...NORTHEAST IOWA...


CITY           SKY/WX    TMP DP  RH WIND       PRES   REMARKS
DECORAH          N/A    N/A N/A N/A MISG        N/A
MASON CITY     CLEAR     57  52  83 NW13      30.06R
CHARLES CITY   PTCLDY    59  59 100 NW9       30.02R FOG
OELWEIN          N/A    N/A N/A N/A N6        29.99S
$$

...ELSEWHERE IN IOWA...


CITY           SKY/WX    TMP DP  RH WIND       PRES   REMARKS
DES MOINES     MOCLDY    66  58  75 N13       30.00S HAZE
IOWA CITY      CLOUDY    67  58  72 N14G26    29.93S HAZE
FORT DODGE     CLEAR     57  50  77 N7        30.07S
$$

...NORTHERN ILLINOIS...


CITY           SKY/WX    TMP DP  RH WIND       PRES   REMARKS
CHICAGO-OHARE  CLOUDY    71  69  93 SW8       29.83S
CHICAGO-MIDWAY CLOUDY    73  69  87 S6        29.85R
MOLINE         CLOUDY    65  61  87 N8        29.88R
ROCKFORD       LGT RAIN  66  63  90 N16       29.86S FOG
PEORIA         LGT RAIN  73  70  90 SE3       29.86S
$$

NOTE: "FAIR" INDICATES FEW OR NO CLOUDS BELOW 12,000 FEET WITH NO
SIGNIFICANT WEATHER AND/OR OBSTRUCTIONS TO VISIBILITY. WIND
SPEEDS ARE IN MILES-PER-HOUR.



USA.gov is the U.S. government's official web portal to all federal, state and local government web resources and services.